Terug naar catalogus

STARLINK-4126

ActiefCommunicatieVLEO
NORAD 52867·PAYLOAD·🇺🇸 United States

Gelanceerd Jun 17, 2022 vanaf Cape Canaveral Space Force Station

Loading…

Volgende Passages (komende 24 uur)

TLE

VersSource: CelesTrak SupGP

Epoch: Sep 15, 2026, 01:30 UTC

1 52867C 22062AP  26258.06298611 -.00026574  00000+0 -78510-3 0  2583
2 52867  53.1572 239.0040 0001429  86.9589 269.7779 15.34405590    16

Volg STARLINK-4126 in realtime met AllMySat

Download on the App Store